Weather History for Waukesha, WI

Change the Weather History Date:

Thursday, February 21, 2013

  Actual Average Record
Temperature  
Mean Temperature 18 °F -  
Max Temperature 26 °F 35 °F 52 °F (1961)
Min Temperature 10 °F 21 °F -12 °F (1963)
Degree Days  
Heating Degree Days 47    
Moisture  
Dew Point 15 °F    
Average Humidity 85    
Maximum Humidity 93    
Minimum Humidity 73    
Precipitation  
Precipitation 0.00 in - - ()
Sea Level Pressure  
Sea Level Pressure 30.26 in    
Wind  
Wind Speed 8 mph (NNE)    
Max Wind Speed 21 mph    
Max Gust Speed 28 mph    
Visibility 10 miles    
Events Snow    
Averages and records for this station are not official NWS values.
T = Trace of Precipitation, MM = Missing Value Source: NWS Daily Summary

Daily Weather History Graph

Daily Weather History Graph

Search for Another Location

Airport:

Trip Planner

Search our weather history database for the weather conditions in past years. The results will help you decide how hot, cold, wet, or windy it might be!

Date:

Astronomy

Feb. 21, 2013 Rise Set
Actual Time 6:41 AM CST 5:32 PM CST
Civil Twilight 6:12 AM CST 6:01 PM CST
Nautical Twilight 5:39 AM CST 6:34 PM CST
Astronomical Twilight 5:06 AM CST 7:07 PM CST
Moon 1:43 PM CST (2/21) 3:49 AM CST (2/21)
Length of Visible Light 11h 48m
Length of Day
10h 51m
Waxing Gibbous, 84% of the Moon is Illuminated
Feb 21
Waxing Gibbous
Feb 25
Full
Mar 4
Last Quarter
Mar 11
New
Mar 19
First Quarter

Hourly Weather History & Observations

Time (CST) Temp. Windchill Dew Point Humidity Pressure Visibility Wind Dir Wind Speed Gust Speed Precip Events Conditions
12:15 AM 14.0 °F 6.5 °F 8.6 °F 79% 30.36 in 10.0 mi North 4.6 mph - N/A   Clear
12:35 AM 14.0 °F 3.9 °F 8.6 °F 79% 30.36 in 10.0 mi North 6.9 mph - N/A   Clear
12:55 AM 14.0 °F 5.1 °F 8.6 °F 79% 30.36 in 10.0 mi North 5.8 mph - N/A   Clear
1:15 AM 14.0 °F 3.9 °F 8.6 °F 79% 30.35 in 10.0 mi North 6.9 mph - N/A   Clear
1:35 AM 14.0 °F 5.1 °F 8.6 °F 79% 30.35 in 10.0 mi North 5.8 mph - N/A   Clear
1:55 AM 14.0 °F 2.9 °F 6.8 °F 73% 30.35 in 10.0 mi NNE 8.1 mph - N/A   Clear
2:15 AM 12.2 °F 2.9 °F 6.8 °F 79% 30.36 in 10.0 mi North 5.8 mph - N/A   Clear
2:35 AM 12.2 °F 6.1 °F 6.8 °F 79% 30.36 in 10.0 mi NNW 3.5 mph - N/A   Clear
2:55 AM 12.2 °F 6.1 °F 6.8 °F 79% 30.36 in 10.0 mi NNW 3.5 mph - N/A   Scattered Clouds
3:15 AM 12.2 °F 6.1 °F 6.8 °F 79% 30.36 in 10.0 mi NNW 3.5 mph - N/A   Mostly Cloudy
3:35 AM 10.4 °F 4.0 °F 6.8 °F 85% 30.36 in 10.0 mi NW 3.5 mph - N/A   Scattered Clouds
3:55 AM 10.4 °F 4.0 °F 6.8 °F 85% 30.36 in 10.0 mi NW 3.5 mph - N/A   Clear
4:15 AM 10.4 °F 2.2 °F 6.8 °F 85% 30.38 in 10.0 mi WNW 4.6 mph - N/A   Mostly Cloudy
4:35 AM 10.4 °F 4.0 °F 8.6 °F 92% 30.38 in 10.0 mi NW 3.5 mph - N/A   Overcast
5:45 AM 10.4 °F 0.8 °F 8.6 °F 92% 30.37 in 10.0 mi North 5.8 mph - N/A   Overcast
6:45 AM 12.2 °F 4.3 °F 10.4 °F 92% 30.38 in 10.0 mi NNE 4.6 mph - N/A   Overcast
7:10 AM 12.2 °F 4.3 °F 10.4 °F 92% 30.37 in 10.0 mi North 4.6 mph - N/A   Overcast
7:45 AM 14.0 °F 8.2 °F 10.4 °F 86% 30.40 in 1.5 mi North 3.5 mph - N/A Snow Light Snow
8:45 AM 15.8 °F - 12.2 °F 86% 30.39 in 5.0 mi Calm Calm - N/A Snow Light Snow
9:45 AM 15.8 °F 4.2 °F 14.0 °F 93% 30.36 in 10.0 mi NW 9.2 mph - N/A   Overcast
10:45 AM 17.6 °F 8.2 °F 15.8 °F 93% 30.36 in 10.0 mi NW 6.9 mph - N/A   Overcast
11:45 AM 19.4 °F 12.8 °F 15.8 °F 86% 30.35 in 10.0 mi NNW 4.6 mph - N/A   Overcast
12:45 PM 21.2 °F 12.6 °F 19.4 °F 93% 30.30 in 10.0 mi NNE 6.9 mph - N/A   Overcast
1:45 PM 21.2 °F 12.6 °F 19.4 °F 93% 30.25 in 10.0 mi ENE 6.9 mph - N/A   Overcast
2:45 PM 23.0 °F 11.7 °F 21.2 °F 93% 30.24 in 10.0 mi NE 11.5 mph 20.7 mph N/A   Overcast
3:45 PM 24.8 °F 15.3 °F 21.2 °F 86% 30.25 in 10.0 mi NE 9.2 mph - N/A   Overcast
4:45 PM 24.8 °F 11.9 °F 21.2 °F 86% 30.23 in 10.0 mi ENE 16.1 mph - N/A   Overcast
5:10 PM 24.8 °F 14.0 °F 21.2 °F 86% 30.23 in 10.0 mi ENE 11.5 mph - N/A   Overcast
5:45 PM 24.8 °F 14.0 °F 21.2 °F 86% 30.21 in 10.0 mi ENE 11.5 mph - N/A   Overcast
6:45 PM 24.8 °F 16.1 °F 21.2 °F 86% 30.19 in 10.0 mi East 8.1 mph - N/A   Overcast
7:45 PM 24.8 °F 11.5 °F 21.2 °F 86% 30.15 in 10.0 mi East 17.3 mph - N/A   Overcast
8:15 PM 26.6 °F 14.3 °F 21.2 °F 80% 30.13 in 10.0 mi East 16.1 mph 23.0 mph N/A   Overcast
8:35 PM 24.8 °F 13.4 °F 21.2 °F 86% 30.12 in 10.0 mi East 12.7 mph 25.3 mph N/A   Overcast
8:45 PM 24.8 °F 11.5 °F 19.4 °F 80% 30.10 in 10.0 mi East 17.3 mph - N/A   Overcast
8:55 PM 24.8 °F 10.3 °F 21.2 °F 86% 30.09 in 10.0 mi East 20.7 mph 27.6 mph N/A   Overcast
9:15 PM 24.8 °F 11.9 °F 21.2 °F 86% 30.10 in 10.0 mi East 16.1 mph 26.5 mph N/A   Overcast
9:35 PM 24.8 °F 11.9 °F 21.2 °F 86% 30.10 in 10.0 mi East 16.1 mph 23.0 mph N/A   Overcast
9:55 PM 24.8 °F 11.9 °F 21.2 °F 86% 30.10 in 10.0 mi East 16.1 mph 24.2 mph N/A   Overcast
10:15 PM 24.8 °F 11.5 °F 21.2 °F 86% 30.08 in 10.0 mi East 17.3 mph 20.7 mph N/A   Overcast
10:35 PM 24.8 °F 11.9 °F 21.2 °F 86% 30.08 in 10.0 mi East 16.1 mph - N/A   Overcast
10:55 PM 24.8 °F 11.9 °F 21.2 °F 86% 30.07 in 10.0 mi East 16.1 mph 24.2 mph N/A   Overcast
11:15 PM 24.8 °F 14.0 °F 21.2 °F 86% 30.07 in 10.0 mi East 11.5 mph 20.7 mph N/A   Overcast
11:35 PM 24.8 °F 12.4 °F 21.2 °F 86% 30.07 in 10.0 mi East 15.0 mph 26.5 mph N/A   Overcast
11:55 PM 24.8 °F 11.9 °F 21.2 °F 86% 30.06 in 10.0 mi East 16.1 mph 25.3 mph N/A   Overcast